• Join FlightAware (Why Join?)
  • Login
  • US Flag GB Flag 
13:02 EST


 

Airport Tracker/Info


-or-


 

Live Flight TrackerFlight Track Log ✈ AAY846 ✈ 10-Jan-2014 ✈ KPIE - KPIA

Flight Track Log - Related Links

Times and Time Zones

All times are in EST time to prevent confusion due to time zone crossing. See the AAY846 flight status page for this flight to view local times or setup timezone preferences in your user account.

Time Position Orientation Groundspeed Altitude Reporting Facility
EST Latitude Longitude Course Direction KTS MPH feet Rate Location/Type
08:08 27.9333 -82.7000 16° North 183 211 600  Level Tampa TRACON
08:09 27.9833 -82.6833 16° North 196 226 2,700 1,680 Climbing Tampa TRACON
08:10 28.0333 -82.6500 30° Northeast 237 273 3,800 1,680 Climbing Tampa TRACON
08:11 28.1000 -82.6333 12° North 261 300 5,800 2,340 Climbing Tampa TRACON
08:12 28.1667 -82.6333 360° North 269 310 8,500 1,920 Climbing Tampa TRACON
08:13 28.2936 -82.6381 358° North 300 345 11,100 1,320 Climbing Jacksonville Center
08:14 28.3897 -82.6567 350° North 322 371 12,200 1,560 Climbing Jacksonville Center
08:15 28.5003 -82.6778 350° North 361 415 14,300 2,040 Climbing Jacksonville Center
08:16 28.6006 -82.7247 338° Northwest 380 437 16,300 1,800 Climbing Jacksonville Center
08:17 28.7133 -82.7767 338° Northwest 405 466 18,000 1,860 Climbing Jacksonville Center
08:18 28.8219 -82.8308 336° Northwest 419 482 20,100 1,800 Climbing Jacksonville Center
08:19 28.9325 -82.8831 338° Northwest 424 488 21,600 1,800 Climbing Jacksonville Center
08:20 29.0556 -82.9378 339° North 429 494 23,700 1,740 Climbing Jacksonville Center
08:21 29.1683 -82.9878 339° North 429 494 25,100 1,380 Climbing Jacksonville Center
08:22 29.2831 -83.0378 339° North 434 499 26,500 1,500 Climbing Jacksonville Center
08:23 29.3917 -83.0903 337° Northwest 429 494 28,100 1,500 Climbing Jacksonville Center
08:24 29.4917 -83.1431 335° Northwest 428 493 29,500 900 Climbing Jacksonville Center
08:25 29.6003 -83.1958 337° Northwest 428 493 30,000 240 Climbing Jacksonville Center
08:26 29.7128 -83.2514 337° Northwest 428 493 30,000 -60 Level Jacksonville Center
08:27 29.8336 -83.3117 337° Northwest 433 498 29,900 -60 Descending Jacksonville Center
08:28 29.9442 -83.3647 337° Northwest 433 498 29,900  Level Jacksonville Center
08:29 30.0544 -83.4181 337° Northwest 433 498 29,900  Level Jacksonville Center
08:30 30.1628 -83.4717 337° Northwest 428 493 29,900  Level Jacksonville Center
08:31 30.2733 -83.5275 336° Northwest 428 493 29,900  Level Jacksonville Center
08:32 30.3775 -83.5789 337° Northwest 417 480 30,000  Climbing Jacksonville Center
08:33 30.4836 -83.6325 336° Northwest 417 480 30,000  Level Jacksonville Center
08:34 30.5794 -83.6839 335° Northwest 417 480 30,000  Level Jacksonville Center
08:35 30.6875 -83.7356 338° Northwest 422 486 30,000  Level Jacksonville Center
08:36 30.7958 -83.7922 336° Northwest 422 486 30,000  Level Jacksonville Center
08:37 30.8997 -83.8464 336° Northwest 417 480 30,000  Level Jacksonville Center
08:38 31.0081 -83.8986 338° Northwest 417 480 30,000  Level Jacksonville Center
08:39 31.1139 -83.9578 334° Northwest 417 480 30,000  Level Jacksonville Center
08:40 31.2325 -84.0150 338° Northwest 422 486 30,000  Level Jacksonville Center
08:41 31.3406 -84.0722 336° Northwest 422 486 30,000  Level Jacksonville Center
08:44 31.5544 -84.1850 336° Northwest 422 486 30,000  Level Atlanta Center
08:45 31.6608 -84.2414 336° Northwest 422 486 30,000  Level Atlanta Center
08:46 31.7692 -84.2953 337° Northwest 422 486 30,000  Level Atlanta Center
08:47 31.8778 -84.3519 336° Northwest 422 486 30,000  Level Atlanta Center
08:48 31.9839 -84.4086 336° Northwest 422 486 30,000  Level Atlanta Center
08:49 32.0922 -84.4631 337° Northwest 422 486 30,000  Level Atlanta Center
08:50 32.1986 -84.5225 335° Northwest 422 486 30,000  Level Atlanta Center
08:51 32.3047 -84.5769 337° Northwest 422 486 30,000  Level Atlanta Center
08:52 32.4153 -84.6342 336° Northwest 422 486 30,000  Level Atlanta Center
08:53 32.5233 -84.6917 336° Northwest 422 486 30,000  Level Atlanta Center
08:54 32.6317 -84.7517 335° Northwest 422 486 30,000  Level Atlanta Center
08:55 32.7481 -84.8144 336° Northwest 422 486 30,000  Level Atlanta Center
08:56 32.8500 -84.8722 335° Northwest 429 494 30,000  Level Atlanta Center
08:57 32.9603 -84.9300 336° Northwest 429 494 30,000  Level Atlanta Center
08:58 33.0642 -84.9858 336° Northwest 416 479 30,000  Level Atlanta Center
08:59 33.1722 -85.0439 336° Northwest 416 479 30,000  Level Atlanta Center
09:00 33.2908 -85.1050 337° Northwest 423 487 30,000  Level Atlanta Center
09:01 33.3989 -85.1636 336° Northwest 423 487 30,000  Level Atlanta Center
09:02 33.5069 -85.2172 338° Northwest 423 487 30,000  Level Atlanta Center
09:03 33.6147 -85.2786 335° Northwest 423 487 30,000  Level Atlanta Center
09:04 33.7247 -85.3375 336° Northwest 423 487 30,000  Level Atlanta Center
09:05 33.8347 -85.3992 335° Northwest 423 487 30,000  Level Atlanta Center
09:06 33.9489 -85.4561 338° Northwest 429 494 30,000  Level Atlanta Center
09:07 34.0442 -85.5106 335° Northwest 429 494 30,000  Level Atlanta Center
09:08 34.1542 -85.5725 335° Northwest 429 494 30,000  Level Atlanta Center
09:09 34.2661 -85.6300 337° Northwest 434 499 30,000  Level Atlanta Center
09:10 34.3758 -85.6922 335° Northwest 434 499 30,000  Level Atlanta Center
09:11 34.4919 -85.7575 335° Northwest 429 494 30,000  Level Atlanta Center
09:12 34.6017 -85.8178 336° Northwest 429 494 30,000  Level Atlanta Center
09:13 34.7011 -85.8706 336° Northwest 424 488 30,000  Level Atlanta Center
09:14 34.8086 -85.9311 335° Northwest 424 488 30,000  Level Atlanta Center
09:15 34.9264 -85.9994 335° Northwest 424 488 30,000  Level Atlanta Center
09:16 35.0342 -86.0606 335° Northwest 424 488 30,000  Level Atlanta Center
09:17 35.1414 -86.1242 334° Northwest 424 488 30,000  Level Atlanta Center
09:18 35.3336 -86.2300 336° Northwest 432 497 30,000  Level Memphis Center
09:19 35.4433 -86.2928 335° Northwest 431 496 30,000  Level Memphis Center
09:20 35.5522 -86.3567 334° Northwest 430 495 30,000  Level Memphis Center
09:21 35.6617 -86.4197 335° Northwest 431 496 30,000  Level Memphis Center
09:22 35.7717 -86.4831 335° Northwest 432 497 30,000  Level Memphis Center
09:23 35.8806 -86.5456 335° Northwest 430 495 30,000  Level Memphis Center
09:24 35.9900 -86.6089 335° Northwest 429 494 30,000  Level Memphis Center
09:26 36.1164 -86.6822 335° Northwest 427 491 30,000  Level Memphis Center
09:27 36.2233 -86.7436 335° Northwest 424 488 30,000  Level Memphis Center
09:28 36.3311 -86.8044 336° Northwest 427 491 30,000  Level Memphis Center
09:29 36.4347 -86.8653 335° Northwest 428 493 30,000  Level Memphis Center
09:30 36.5414 -86.9278 335° Northwest 424 488 30,000  Level Memphis Center
09:31 36.6669 -87.0008 335° Northwest 423 487 30,000  Level Memphis Center
09:32 36.7739 -87.0644 335° Northwest 421 484 30,000  Level Memphis Center
09:33 36.8814 -87.1286 334° Northwest 423 487 30,000  Level Memphis Center
09:34 36.9889 -87.1922 335° Northwest 423 487 30,000  Level Memphis Center
09:35 37.0972 -87.2567 335° Northwest 426 490 30,000  Level Memphis Center
09:35 37.1519 -87.2875 336° Northwest 427 491 30,000  Level Indianapolis Center
09:36 37.2603 -87.3522 335° Northwest 428 493 30,000  Level Indianapolis Center
09:37 37.3697 -87.4153 335° Northwest 428 493 30,000  Level Indianapolis Center
09:38 37.4786 -87.4828 334° Northwest 431 496 30,000  Level Indianapolis Center
09:39 37.6044 -87.5644 333° Northwest 433 498 30,000  Level Indianapolis Center
09:40 37.7136 -87.6300 335° Northwest 431 496 30,000  Level Indianapolis Center
09:41 37.8269 -87.6994 334° Northwest 433 498 30,000  Level Indianapolis Center
09:43 37.9325 -87.7633 334° Northwest 431 496 30,000  Level Indianapolis Center
09:44 38.0458 -87.8306 335° Northwest 431 496 30,000  Level Indianapolis Center
09:45 38.1567 -87.8950 335° Northwest 433 498 30,000  Level Indianapolis Center
09:46 38.2658 -87.9619 334° Northwest 431 496 30,000  Level Indianapolis Center
09:47 38.3764 -88.0278 335° Northwest 433 498 30,000  Level Indianapolis Center
09:48 38.4869 -88.0933 335° Northwest 435 501 30,000 -180 Level Indianapolis Center
09:49 38.5967 -88.1583 335° Northwest 432 497 29,700 -720 Descending Indianapolis Center
09:50 38.7064 -88.2264 334° Northwest 434 499 28,600 -1,020 Descending Indianapolis Center
09:51 38.8147 -88.2897 336° Northwest 428 493 27,600 -960 Descending Indianapolis Center
09:52 38.9200 -88.3536 335° Northwest 417 480 26,700 -900 Descending Indianapolis Center
09:53 39.0239 -88.4172 335° Northwest 413 475 25,800 -1,020 Descending Indianapolis Center
09:54 39.1494 -88.4928 335° Northwest 412 474 24,700 -1,020 Descending Indianapolis Center
09:55 39.2525 -88.5567 334° Northwest 408 470 23,700 -1,440 Descending Indianapolis Center
09:56 39.3556 -88.6200 335° Northwest 409 471 21,800 -1,920 Descending Indianapolis Center
09:57 39.4606 -88.6839 335° Northwest 412 474 19,800 -1,800 Descending Indianapolis Center
09:58 39.6064 -88.7728 335° Northwest 389 448 17,400 -1,620 Descending Indianapolis Center
09:59 39.6972 -88.8306 334° Northwest 372 428 15,900 -1,440 Descending Indianapolis Center
10:00 39.7781 -88.8906 330° Northwest 365 420 14,600 -1,440 Descending Kansas City Center
10:01 39.8583 -88.9625 325° Northwest 354 407 13,000 -1,500 Descending Kansas City Center
10:02 39.9069 -89.0061 325° Northwest 354 407 12,200 -660 Descending Chicago Center
10:03 39.9850 -89.0758 326° Northwest 345 397 12,000 -120 Descending Chicago Center
10:04 40.0617 -89.1456 325° Northwest 337 388 12,000 -540 Level Chicago Center
10:05 40.1394 -89.2150 326° Northwest 337 388 11,000 -540 Descending Chicago Center
10:06 40.2303 -89.2958 326° Northwest 332 382 11,000  Level Chicago Center
10:07 40.3006 -89.3594 325° Northwest 315 362 11,000 -300 Level Chicago Center
10:08 40.3544 -89.4361 313° West 292 336 10,500 -1,020 Descending Chicago Center
10:09 40.4053 -89.5133 311° West 282 325 9,000 -1,560 Descending Chicago Center
10:10 40.4561 -89.5875 312° West 276 318 7,400 -1,440 Descending Chicago Center
10:11 40.5061 -89.6594 312° West 269 310 6,100 -720 Descending Chicago Center
10:12 40.5536 -89.7319 311° West 264 304 6,000 -300 Descending Chicago Center
10:13 40.6008 -89.8003 312° West 255 293 5,500 -780 Descending Chicago Center
10:14 40.6392 -89.8589 311° West 224 258 4,500 -1,320 Descending Chicago Center
10:15 40.6797 -89.9192 312° West 215 247 2,800 -1,020 Descending Chicago Center
10:16 40.7222 -89.9786 313° West 227 261 2,500 -180 Descending Chicago Center
10:17 40.7733 -89.9353 33° Northeast 224 258 2,500  Level Chicago Center
10:18 40.7575 -89.8628 106° East 185 213 2,600  Climbing Chicago Center
10:19 40.7292 -89.8122 126° Southeast 173 199 2,500 -420 Descending Chicago Center
10:20 40.7019 -89.7631 126° Southeast 167 192 1,800 -720 Descending Chicago Center
10:21 40.6822 -89.7294 128° Southeast 134 154 1,100 -600 Descending Chicago Center
10:23 40.6636 -89.6958 126° Southeast 128 147 600 -540 Descending Chicago Center